Time,TemperatureF,DewpointF,PressureIn,WindDirection,WindDirectionDegrees,WindSpeedMPH,WindSpeedGustMPH,Humidity,HourlyPrecipIn,Conditions,Clouds,dailyrainin,SolarRadiationWatts/m^2,SoftwareType,DateUTC
2013-05-11 07:20:00,60.9,37.6,30.05,SSE,147,0.0,0.0,42,0.00,,,0.00,339,Wunderground v.1.15,2013-05-11 14:20:00,
2013-05-11 07:30:00,62.2,37.6,30.05,SSW,208,0.0,0.0,40,0.00,,,0.00,376,Wunderground v.1.15,2013-05-11 14:30:00,
2013-05-11 07:40:00,62.9,37.5,30.05,SW,215,0.0,0.0,39,0.00,,,0.00,410,Wunderground v.1.15,2013-05-11 14:40:00,
2013-05-11 07:50:00,64.1,37.3,30.05,SE,128,0.0,0.0,37,0.00,,,0.00,448,Wunderground v.1.15,2013-05-11 14:50:00,
2013-05-11 08:00:00,65.3,37.6,30.05,SE,140,1.0,1.0,36,0.00,,,0.00,480,Wunderground v.1.15,2013-05-11 15:00:00,
2013-05-11 08:10:00,65.8,37.4,30.06,ESE,122,0.0,0.0,35,0.00,,,0.00,517,Wunderground v.1.15,2013-05-11 15:10:00,
2013-05-11 08:20:00,67.0,37.7,30.06,SE,134,1.0,1.0,34,0.00,,,0.00,548,Wunderground v.1.15,2013-05-11 15:20:00,
2013-05-11 08:30:00,67.9,37.7,30.06,ENE,78,3.0,5.0,33,0.00,,,0.00,584,Wunderground v.1.15,2013-05-11 15:30:00,
2013-05-11 08:40:00,68.1,37.9,30.05,East,91,8.0,8.0,33,0.00,,,0.00,615,Wunderground v.1.15,2013-05-11 15:40:00,
2013-05-11 08:50:00,68.6,37.5,30.05,ESE,121,7.0,7.0,32,0.00,,,0.00,649,Wunderground v.1.15,2013-05-11 15:50:00,
2013-05-11 09:00:00,69.2,37.3,30.05,ESE,108,9.0,11.0,31,0.00,,,0.00,679,Wunderground v.1.15,2013-05-11 16:00:00,
2013-05-11 13:50:00,74.8,34.5,30.01,East,83,3.0,9.0,23,0.00,,,0.00,396,Wunderground v.1.15,2013-05-11 20:50:00,
2013-05-11 14:00:00,74.9,34.6,30.01,ENE,60,6.0,6.0,23,0.00,,,0.00,288,Wunderground v.1.15,2013-05-11 21:00:00,
2013-05-11 14:10:00,75.1,34.8,30.01,East,96,5.0,5.0,23,0.00,,,0.00,353,Wunderground v.1.15,2013-05-11 21:10:00,
2013-05-11 14:20:00,76.1,35.6,30.00,East,96,5.0,11.0,23,0.00,,,0.00,253,Wunderground v.1.15,2013-05-11 21:20:00,
2013-05-11 14:30:00,75.0,35.7,30.00,ENE,59,5.0,10.0,24,0.00,,,0.00,318,Wunderground v.1.15,2013-05-11 21:30:00,
2013-05-11 14:40:00,74.8,36.6,29.99,ENE,58,5.0,9.0,25,0.00,,,0.00,234,Wunderground v.1.15,2013-05-11 21:40:00,
2013-05-11 14:50:00,76.3,34.6,29.99,NE,42,8.0,8.0,22,0.00,,,0.00,912,Wunderground v.1.15,2013-05-11 21:50:00,
2013-05-11 15:00:00,77.9,34.8,29.98,East,101,3.0,4.0,21,0.00,,,0.00,840,Wunderground v.1.15,2013-05-11 22:00:00,
2013-05-11 15:10:00,78.3,33.9,29.98,NE,34,5.0,5.0,20,0.00,,,0.00,176,Wunderground v.1.15,2013-05-11 22:10:00,
2013-05-11 15:20:00,77.8,34.7,29.97,East,84,2.0,10.0,21,0.00,,,0.00,884,Wunderground v.1.15,2013-05-11 22:20:00,
2013-05-11 15:30:00,76.8,33.9,29.97,NE,49,6.0,11.0,21,0.00,,,0.00,183,Wunderground v.1.15,2013-05-11 22:30:00,
2013-05-11 15:40:00,76.6,33.7,29.97,NNE,16,5.0,5.0,21,0.00,,,0.00,295,Wunderground v.1.15,2013-05-11 22:40:00,
2013-05-11 15:50:00,77.8,33.5,29.97,NE,49,2.0,3.0,20,0.00,,,0.00,691,Wunderground v.1.15,2013-05-11 22:50:00,
2013-05-11 16:00:00,78.1,35.0,29.97,SE,134,5.0,7.0,21,0.00,,,0.00,738,Wunderground v.1.15,2013-05-11 23:00:00,
2013-05-11 16:10:00,77.4,33.2,29.97,ENE,69,3.0,16.0,20,0.00,,,0.00,98,Wunderground v.1.15,2013-05-11 23:10:00,
2013-05-11 16:20:00,75.7,31.8,29.97,East,80,6.0,6.0,20,0.00,,,0.00,56,Wunderground v.1.15,2013-05-11 23:20:00,
2013-05-11 16:30:00,75.2,31.3,29.97,NE,35,3.0,3.0,20,0.00,,,0.00,185,Wunderground v.1.15,2013-05-11 23:30:00,
2013-05-11 16:40:00,76.6,32.5,29.97,ENE,57,2.0,2.0,20,0.00,,,0.00,591,Wunderground v.1.15,2013-05-11 23:40:00,
2013-05-11 16:50:00,77.1,32.9,29.97,East,84,7.0,7.0,20,0.00,,,0.00,91,Wunderground v.1.15,2013-05-11 23:50:00,
2013-05-11 17:00:00,75.8,33.1,29.97,East,79,4.0,16.0,21,0.00,,,0.00,69,Wunderground v.1.15,2013-05-12 00:00:00,
2013-05-11 17:10:00,75.0,32.4,29.97,ENE,67,4.0,4.0,21,0.00,,,0.00,60,Wunderground v.1.15,2013-05-12 00:10:00,
2013-05-11 17:20:00,75.2,32.6,29.97,ENE,70,4.0,4.0,21,0.00,,,0.00,56,Wunderground v.1.15,2013-05-12 00:20:00,
2013-05-11 17:30:00,74.6,33.2,29.97,East,80,3.0,6.0,22,0.00,,,0.00,60,Wunderground v.1.15,2013-05-12 00:30:00,
2013-05-11 17:40:00,74.9,33.5,29.97,East,88,4.0,4.0,22,0.00,,,0.00,265,Wunderground v.1.15,2013-05-12 00:40:00,
2013-05-11 17:50:00,75.2,32.6,29.97,East,98,5.0,8.0,21,0.00,,,0.00,214,Wunderground v.1.15,2013-05-12 00:50:00,